Location: Paderno d�Adda
(45.6667°N, 9.4333°E)
Time: 13:41:56
(UTC+00:00)

Cosmos 1025 Rocket - Pass Details

Date: 19 September 2020
Orbit: 595 x 617 km, 82.5° (Epoch: 29 October)

Event Time Altitude Azimuth Distance (km) Brightness Sun altitude
Rises 18:59:33 0° 349° (N) 2,887 6.9 -17.0°
Reaches altitude 10° 19:01:46 10° 349° (N) 1,981 6.1 -17.4°
Maximum altitude 19:06:09 80° 264° (W) 631 3.1 -18.1°
Enters shadow 19:10:02 13° 177° (S) 1,776 5.2 -18.7°
